sat.trackr.live / text

‹ back to catalog

STARLINK-34563

NORAD 64708 · 2025-142N

PAYLOAD ACTIVE UNKNOWN

§ Identity

Operator
Country
US
Launch date
2025-06-28
Launch site
AFWTR
Launch vehicle
Mass (kg)
RCS (m²)

Purposes: comms

External: N2YO · Heavens-Above · Gunter

§ Orbital elements

Epoch: 2026-09-20T12:18:40.071456Z

Period
94.14 min
Inclination
70.0021°
Eccentricity
0.0002826
Mean motion
15.29593854 rev/d
Perigee alt
475.1 km
Apogee alt
479.0 km
Semi-major
6,855.2 km
B*
7.5821e-4
RAAN
180.8356°
Arg perigee
282.8230°
Mean anomaly
77.2629°
Rev number
6,870

§ Raw data

STARLINK-345631 64708U 25142N   26263.51296379  .00021740  00000+0  75821-3 0  99992 64708  70.0021 180.8356 0002826 282.8230  77.2629 15.29593854 68706

JSON: /api/v1/satellites/64708 · /tle

For live sub-satellite position, see the globe view (requires WebGL).

§ Visibility from observer

Set your observer location to see the next 7 days of passes ≥ 10°. The values pass through the URL so the page stays shareable.

No JS? Fill the form by hand. The geolocation button needs JavaScript.